User: anonymous   Login
Location: Albany
(42.6526°N, 73.7562°W)
Time: 22:30:07
(UTC+00:00)
Language:

NOSS 2-3 (D) - Orbit

View from above orbital plane
View from above orbital plane
View from above satellite
View from above satellite

Ground track
Ground track

The orbit data is extracted from the following two-line orbital elements,

1 23862U 96029D   20019.18755901 0.00000000  00000-0  00000-0 0    08
2 23862  63.3371 140.5179 0694958  21.0344 338.9656 13.40876204    03
Epoch (UTC): 19 January 2020 04:30:05
Eccentricity: 0.0694958
inclination: 63.3371°
perigee height: 586 km
apogee height: 1626 km
right ascension of ascending node: 140.5179°
argument of perigee: 21.0344°
revolutions per day: 13.40876204
mean anomaly at epoch: 338.9656°
orbit number at epoch: 0

The dashed part of the orbit path shows where the satellite is in the earth's shadow,  

DLR